Regional Weather Roundup
Issued by NWS Upton, NY

Current Version | Previous Version | Text Only | Print | Product List | Glossary Off
Versions: 1 2 3 4 5 6 7 8 9 10 11 12 13 14 15 16 17 18 19 20 21 22 23 24 25 26 27 28 29 30 31 32 33 34 35 36 37 38 39 40 41 42 43 44 45 46 47 48 49 50
000 ASUS41 KOKX 190905 RWROKX Regional Weather Roundup National Weather Service New York NY 500 AM EDT WED SEP 19 2018 Note: "FAIR" indicates few or no clouds below 12,000 feet with no significant weather and/or obstructions to visibility. NYZ071-072-176-178-NJZ106-104-191000- New York City Metro Area CITY SKY/WX TMP DP RH WIND PRES REMARKS Central Park FAIR 69 66 90 W3 29.82S Bronx Lehman C N/A 70 68 94 N6 N/A LaGuardia Arpt FAIR 73 66 78 N3 29.79R Queens College N/A 70 68 94 N7 N/A Kennedy Intl FAIR 69 69 100 N7 29.79S Breezy Point N/A 70 N/A N/A NW5 N/A Brooklyn Coll N/A 72 64 78 N7 N/A Staten Island N/A 68 66 94 NE1 N/A Newark/Liberty FAIR 68 65 90 N3 29.80R Teterboro FAIR 67 66 97 CALM 29.79R $$ NYZ177-179-078>081-191000- Long Island New York CITY SKY/WX TMP DP RH WIND PRES REMARKS Jones Beach N/A 70 N/A N/A N7 N/A Wantagh N/A 68 66 94 N5 N/A Hempstead N/A 68 66 94 NW3 29.82S Matinecock Pt N/A 72 N/A N/A NE8 N/A Farmingdale FAIR 68 66 93 N7 29.79R MacArthur/ISP FAIR 68 68 100 N7 29.78S Stony Brook N/A 68 68 100 N1 N/A Shirley FAIR 69 66 90 N7 29.78S Mt Sinai Harb N/A N/A N/A N/A N5 N/A Westhampton FAIR 68 66 93 N6 29.79S East Hampton FOG 63 62 99 CALM 29.77F VSB 1/2 Southold N/A 66 32 28 N2 N/A Montauk N/A 68 68 100 VRB3 29.79S $$ NYZ052-065-067-191000- Hudson Valley CITY SKY/WX TMP DP RH WIND PRES REMARKS White Plains FAIR 68 66 93 N12 29.80R Larchmont Harb N/A 70 N/A N/A CALM N/A Croton On Huds N/A 66 N/A N/A CALM N/A Somers N/A 66 66 100 N3 N/A Brewster N/A 66 64 94 N7 N/A Newburgh CLEAR 63 63 100 CALM 29.85R Montgomery MOCLDY 61 60 97 N3 29.84R FOG Otisville N/A 61 61 100 E2 N/A Warwick N/A 59 59 100 NW1 N/A Suffern N/A 66 66 100 N2 N/A Poughkeepsie FOG 63 62 97 CALM 29.83R VSB 1/4 Albany MOCLDY 65 61 87 N9 29.88R $$ NJZ001-105-106-008-010-013-015-019>022-104-191000- New Jersey CITY SKY/WX TMP DP RH WIND PRES REMARKS Newark/Liberty FAIR 68 65 90 N3 29.80R Teterboro FAIR 67 66 97 CALM 29.79R Caldwell FOG 63 63 100 CALM 29.82R VSB 1/2 Somerville FAIR 61 60 97 CALM 29.80S FOG Linden FAIR 67 64 91 CALM 29.80S Perth Amboy N/A 66 N/A N/A W6 N/A Sussex FOG 61 61 100 CALM 29.85R VSB 1/4 Andover N/A 61 59 93 CALM 29.85R Trenton FAIR 68 65 90 NW6 29.81R Millville FAIR 65 65 100 NW3 29.81S Atlantic City FAIR 68 67 96 W5 29.80S Wrightstown CLEAR 65 65 98 NW5 29.79 Toms River FAIR 66 66 100 NW5 29.81R Belmar FAIR 66 65 96 W3 29.81R $$ PAZ047>061-062-071-191000- Eastern Pennsylvania CITY SKY/WX TMP DP RH WIND PRES REMARKS Philadelphia FAIR 68 65 90 CALM 29.83R Allentown FAIR 66 62 87 SW7 29.84S Scranton FAIR 63 63 100 E3 29.88S FOG $$ CTZ002-004>006-009-010-012-RIZ004-006-007-MAZ004-011-015-191000- Southern New England In CT CITY SKY/WX TMP DP RH WIND PRES REMARKS Bradley Intl FAIR 66 65 96 N7 29.82R Hartford CLOUDY 67 66 97 N8 29.81R Danbury FOG 62 62 100 CALM 29.84R VSB 1/2 Wtrbury/Oxford FAIR 67 65 93 N12 29.84R Norwalk Harbor N/A 70 N/A N/A N6 N/A Bridgeport FAIR 69 66 90 N5 29.79R Meriden FAIR 66 65 96 N5 29.81R New Haven FAIR 69 67 93 N7 29.79R Chester FAIR 68 68 100 NW7 29.80S Groton FOG 64 64 100 CALM 29.77S VSB 1/4 Willimantic FOG 62 62 100 N3 29.81R VSB 1/2 In RI CITY SKY/WX TMP DP RH WIND PRES REMARKS Providence MOCLDY 66 66 100 N6 29.80R Block Island NOT AVBL Westerly FAIR 64 64 100 CALM 29.78F FOG In MA CITY SKY/WX TMP DP RH WIND PRES REMARKS Boston CLOUDY 65 63 93 NE20 29.82 FOG Worcester CLOUDY 65 64 97 N8 29.85R Westfield FAIR 65 65 100 CALM 29.82S Provincetown FOG 66 65 96 NE7 29.80 VSB 1 Nantucket FOG 65 64 97 NE9 29.77R VSB 3/4 $$ ANZ330-335-338-340-345-350-353-355-191000- Coastal Marine Observations STATION/POSITION TIME SKY/WX TEMP WIND PRES VSBY WAVE AIR SEA DIR/SP/G HT/PER (UTC) (F) (DEG/KT/KT) (MB) (MI) (FT/S) NY Harb Entrance 0850 72 72 330/ 6/ 6 1008.3 3/ 7 20 S Fire Island 0850 72 72 340/ 8/ 10 1008.0 3/ 7 Great South Bay 0815 71 74 350/ 6/ 8 N/A 23 SSW Montauk P 0850 68 70 10/ 4/ 6 1008.2 3/ 7 15 E Barnegat Li 0900 74 N/A 3/ 7 Hudson Canyon 0850 71 20/ 14/ 16 1007.7 4/ 7 Kings Point 0842 70 74 90/ 2/ 3 1009.8 Execution Rocks 0830 73 10/ 4/ 6 N/A Western LI Sound 0750 72 20/ 4/ 8 N/A 0 Central LI Sound 0830 72 74 40/ 6/ 8 N/A 0 Robbins Reef 0848 71 330/ 4/ 5 1009.5 $$ >>>>>>>>>>>>>>>>>>>>>>>>>>>> KEY <<<<<<<<<<<<<<<<<<<<<<<<<<< > < > SKY/WX - Sky Condition/Present Weather < > TMP - Temperature in Fahrenheit < > DP - Dew Point in Fahrenheit < > RH - Relative Humidity in Percent < > WIND - Direction (from) and Speed in MPH < > PRES - Mean Sea Level Pressure (inches of Hg) < > WCI - Wind Chill Index < > VSB - Visibility in Miles < > HX - Heat Index < > TC - Temperature in Celsius < > VRB - Variable Wind Direction < > < >>>>>>>>>>>>>>>>>>>>>>>>>>>> KEY <<<<<<<<<<<<<<<<<<<<<<<<<<<

USA.gov is the U.S. government's official web portal to all federal, state and local government web resources and services.